contact:dominique.lefevre@mio.osupytheas.fr, maurice.libes@osupytheas.fr, didier.mallarino@osupytheas.fr
Project:EMSO http://www.emso-fr.org/EMSO-France
Depth: 2436.0 m
Title:EMSO Ligure Ouest : Data MII capteur MICROCAT
DateTime_Computer,Latitude,Longitude,Temperature,Conductivity,Pressure,DateTime_Instrument
DateTime_Computer,Latitude,Longitude,degC,S m-1,dbar,DateTime_Instrument
2019-11-02T00:01:19Z,42.805,6.029,13.2976,4.59997,2469.937,2019-11-02T02:01:46Z
2019-11-02T00:04:23Z,42.805,6.029,13.2974,4.60029,2469.923,2019-11-02T02:04:49Z
2019-11-02T00:07:26Z,42.805,6.029,13.2985,4.60043,2469.937,2019-11-02T02:07:53Z
2019-11-02T00:10:29Z,42.805,6.029,13.2990,4.60025,2469.937,2019-11-02T02:10:56Z
2019-11-02T00:13:32Z,42.805,6.029,13.2990,4.60026,2469.923,2019-11-02T02:13:59Z
2019-11-02T00:16:35Z,42.805,6.029,13.2973,4.60027,2469.937,2019-11-02T02:17:02Z
2019-11-02T00:19:39Z,42.805,6.029,13.2976,4.60026,2469.984,2019-11-02T02:20:05Z
2019-11-02T00:22:42Z,42.805,6.029,13.2970,4.60002,2469.96,2019-11-02T02:23:09Z
2019-11-02T00:25:45Z,42.805,6.029,13.2974,4.60015,2469.937,2019-11-02T02:26:12Z
2019-11-02T00:28:48Z,42.805,6.029,13.2974,4.60025,2469.947,2019-11-02T02:29:15Z
2019-11-02T00:31:51Z,42.805,6.029,13.2968,4.60016,2469.937,2019-11-02T02:32:18Z
2019-11-02T00:34:55Z,42.805,6.029,13.2977,4.60005,2469.9,2019-11-02T02:35:21Z
2019-11-02T00:37:58Z,42.805,6.029,13.2990,4.60016,2469.937,2019-11-02T02:38:25Z
2019-11-02T00:41:01Z,42.805,6.029,13.2971,4.60002,2469.923,2019-11-02T02:41:28Z
2019-11-02T00:44:04Z,42.805,6.029,13.2979,4.60013,2469.9,2019-11-02T02:44:31Z
2019-11-02T00:47:07Z,42.805,6.029,13.2969,4.60004,2469.923,2019-11-02T02:47:34Z
2019-11-02T00:50:11Z,42.805,6.029,13.2974,4.60015,2469.9,2019-11-02T02:50:37Z
2019-11-02T00:53:14Z,42.805,6.029,13.2979,4.60015,2469.937,2019-11-02T02:53:41Z
2019-11-02T00:56:17Z,42.805,6.029,13.2974,4.60032,2469.96,2019-11-02T02:56:44Z
2019-11-02T00:59:20Z,42.805,6.029,13.2982,4.60013,2469.9,2019-11-02T02:59:47Z
2019-11-02T01:02:24Z,42.805,6.029,13.2996,4.60030,2469.937,2019-11-02T03:02:50Z
2019-11-02T01:05:27Z,42.805,6.029,13.2990,4.60029,2469.914,2019-11-02T03:05:54Z
2019-11-02T01:08:30Z,42.805,6.029,13.2992,4.60028,2469.923,2019-11-02T03:08:57Z
2019-11-02T01:11:33Z,42.805,6.029,13.2985,4.60026,2469.9,2019-11-02T03:12:00Z
2019-11-02T01:14:36Z,42.805,6.029,13.2988,4.60010,2469.9,2019-11-02T03:15:03Z
2019-11-02T01:17:40Z,42.805,6.029,13.2998,4.60019,2469.9,2019-11-02T03:18:06Z
2019-11-02T01:20:43Z,42.805,6.029,13.2993,4.60003,2469.876,2019-11-02T03:21:10Z
2019-11-02T01:23:47Z,42.805,6.029,13.2996,4.60031,2469.89,2019-11-02T03:24:13Z
2019-11-02T01:26:50Z,42.805,6.029,13.2983,4.60020,2469.914,2019-11-02T03:27:17Z
2019-11-02T01:29:53Z,42.805,6.029,13.2987,4.60016,2469.923,2019-11-02T03:30:20Z
2019-11-02T01:32:56Z,42.805,6.029,13.3006,4.60039,2469.927,2019-11-02T03:33:23Z
2019-11-02T01:35:59Z,42.805,6.029,13.3014,4.60040,2469.876,2019-11-02T03:36:26Z
2019-11-02T01:39:03Z,42.805,6.029,13.3002,4.60047,2469.9,2019-11-02T03:39:29Z
2019-11-02T01:42:06Z,42.805,6.029,13.2998,4.60033,2469.89,2019-11-02T03:42:33Z
2019-11-02T01:45:09Z,42.805,6.029,13.3022,4.60031,2469.914,2019-11-02T03:45:36Z
2019-11-02T01:48:12Z,42.805,6.029,13.3013,4.60040,2469.914,2019-11-02T03:48:39Z
2019-11-02T01:51:16Z,42.805,6.029,13.3010,4.60003,2469.876,2019-11-02T03:51:42Z
2019-11-02T01:54:19Z,42.805,6.029,13.3004,4.60028,2469.89,2019-11-02T03:54:46Z
2019-11-02T01:57:22Z,42.805,6.029,13.2983,4.60061,2469.89,2019-11-02T03:57:49Z
2019-11-02T02:00:25Z,42.805,6.029,13.3026,4.60053,2469.9,2019-11-02T04:00:52Z
2019-11-02T02:03:28Z,42.805,6.029,13.3016,4.60051,2469.876,2019-11-02T04:03:55Z
2019-11-02T02:06:32Z,42.805,6.029,13.3004,4.60017,2469.876,2019-11-02T04:06:58Z
2019-11-02T02:09:35Z,42.805,6.029,13.2997,4.60013,2469.876,2019-11-02T04:10:01Z
2019-11-02T02:12:38Z,42.805,6.029,13.3000,4.60014,2469.914,2019-11-02T04:13:05Z
2019-11-02T02:15:41Z,42.805,6.029,13.3002,4.60046,2469.867,2019-11-02T04:16:08Z
2019-11-02T02:18:44Z,42.805,6.029,13.3007,4.60038,2469.867,2019-11-02T04:19:11Z
2019-11-02T02:21:48Z,42.805,6.029,13.3015,4.60026,2469.876,2019-11-02T04:22:14Z
2019-11-02T02:24:51Z,42.805,6.029,13.3030,4.60018,2469.9,2019-11-02T04:25:17Z
2019-11-02T02:27:54Z,42.805,6.029,13.3013,4.60026,2469.89,2019-11-02T04:28:21Z
2019-11-02T02:30:57Z,42.805,6.029,13.2996,4.60038,2469.876,2019-11-02T04:31:24Z
2019-11-02T02:34:00Z,42.805,6.029,13.2995,4.60033,2469.853,2019-11-02T04:34:27Z
2019-11-02T02:37:04Z,42.805,6.029,13.3000,4.60062,2469.876,2019-11-02T04:37:30Z
2019-11-02T02:40:07Z,42.805,6.029,13.3004,4.60031,2469.89,2019-11-02T04:40:34Z
2019-11-02T02:43:10Z,42.805,6.029,13.2987,4.60054,2469.876,2019-11-02T04:43:37Z
2019-11-02T02:46:13Z,42.805,6.029,13.2983,4.60031,2469.853,2019-11-02T04:46:40Z
2019-11-02T02:49:16Z,42.805,6.029,13.2998,4.60024,2469.867,2019-11-02T04:49:43Z
2019-11-02T02:52:20Z,42.805,6.029,13.2995,4.60021,2469.914,2019-11-02T04:52:46Z
2019-11-02T02:55:23Z,42.805,6.029,13.3025,4.60066,2469.867,2019-11-02T04:55:50Z
2019-11-02T02:58:26Z,42.805,6.029,13.3002,4.60052,2469.867,2019-11-02T04:58:53Z
2019-11-02T03:01:29Z,42.805,6.029,13.2987,4.60025,2469.876,2019-11-02T05:01:56Z
2019-11-02T03:04:32Z,42.805,6.029,13.2991,4.60058,2469.9,2019-11-02T05:04:59Z
2019-11-02T03:07:36Z,42.805,6.029,13.3011,4.59997,2469.914,2019-11-02T05:08:02Z
2019-11-02T03:10:39Z,42.805,6.029,13.3004,4.60032,2469.867,2019-11-02T05:11:06Z
2019-11-02T03:13:42Z,42.805,6.029,13.3008,4.60009,2469.853,2019-11-02T05:14:09Z
2019-11-02T03:16:45Z,42.805,6.029,13.3015,4.60043,2469.853,2019-11-02T05:17:12Z
2019-11-02T03:19:48Z,42.805,6.029,13.2990,4.60020,2469.853,2019-11-02T05:20:15Z
2019-11-02T03:22:52Z,42.805,6.029,13.2996,4.60006,2469.853,2019-11-02T05:23:18Z
2019-11-02T03:25:55Z,42.805,6.029,13.2983,4.60046,2469.876,2019-11-02T05:26:22Z
2019-11-02T03:28:58Z,42.805,6.029,13.2988,4.60031,2469.844,2019-11-02T05:29:25Z
2019-11-02T03:32:01Z,42.805,6.029,13.3013,4.60037,2469.853,2019-11-02T05:32:28Z
2019-11-02T03:35:05Z,42.805,6.029,13.2996,4.60020,2469.867,2019-11-02T05:35:31Z
2019-11-02T03:38:08Z,42.805,6.029,13.3005,4.60033,2469.853,2019-11-02T05:38:34Z
2019-11-02T03:41:11Z,42.805,6.029,13.3006,4.60021,2469.844,2019-11-02T05:41:38Z
2019-11-02T03:44:14Z,42.805,6.029,13.3014,4.60027,2469.867,2019-11-02T05:44:41Z
2019-11-02T03:47:17Z,42.805,6.029,13.3000,4.60026,2469.89,2019-11-02T05:47:44Z
2019-11-02T03:50:21Z,42.805,6.029,13.3000,4.60067,2469.914,2019-11-02T05:50:47Z
2019-11-02T03:53:24Z,42.805,6.029,13.3018,4.60052,2469.876,2019-11-02T05:53:51Z
2019-11-02T03:56:27Z,42.805,6.029,13.3024,4.60031,2469.853,2019-11-02T05:56:54Z
2019-11-02T03:59:30Z,42.805,6.029,13.3018,4.59985,2469.853,2019-11-02T05:59:57Z
2019-11-02T04:02:33Z,42.805,6.029,13.3011,4.60016,2469.853,2019-11-02T06:03:00Z
2019-11-02T04:05:37Z,42.805,6.029,13.3033,4.60026,2469.844,2019-11-02T06:06:03Z
2019-11-02T04:08:40Z,42.805,6.029,13.3010,4.60020,2469.83,2019-11-02T06:09:07Z
2019-11-02T04:11:43Z,42.805,6.029,13.3015,4.60034,2469.853,2019-11-02T06:12:10Z
2019-11-02T04:14:46Z,42.805,6.029,13.2993,4.60045,2469.867,2019-11-02T06:15:13Z
2019-11-02T04:17:50Z,42.805,6.029,13.3010,4.60056,2469.867,2019-11-02T06:18:16Z
2019-11-02T04:20:53Z,42.805,6.029,13.3024,4.60033,2469.853,2019-11-02T06:21:20Z
2019-11-02T04:23:56Z,42.805,6.029,13.3006,4.60016,2469.867,2019-11-02T06:24:23Z
2019-11-02T04:26:59Z,42.805,6.029,13.3021,4.60034,2469.867,2019-11-02T06:27:26Z
2019-11-02T04:30:02Z,42.805,6.029,13.3001,4.60049,2469.867,2019-11-02T06:30:29Z
2019-11-02T04:33:06Z,42.805,6.029,13.2974,4.60016,2469.867,2019-11-02T06:33:32Z
2019-11-02T04:36:09Z,42.805,6.029,13.2998,4.60024,2469.867,2019-11-02T06:36:36Z
2019-11-02T04:39:12Z,42.805,6.029,13.3010,4.60001,2469.867,2019-11-02T06:39:39Z
2019-11-02T04:42:15Z,42.805,6.029,13.2986,4.60046,2469.876,2019-11-02T06:42:42Z
2019-11-02T04:45:18Z,42.805,6.029,13.3002,4.60052,2469.853,2019-11-02T06:45:45Z
2019-11-02T04:48:22Z,42.805,6.029,13.3014,4.60042,2469.844,2019-11-02T06:48:48Z
2019-11-02T04:51:25Z,42.805,6.029,13.2967,4.59996,2469.853,2019-11-02T06:51:52Z
2019-11-02T04:54:28Z,42.805,6.029,13.2970,4.59991,2469.853,2019-11-02T06:54:55Z
2019-11-02T04:57:31Z,42.805,6.029,13.2976,4.60015,2469.853,2019-11-02T06:57:58Z
2019-11-02T05:00:34Z,42.805,6.029,13.2993,4.60033,2469.867,2019-11-02T07:01:01Z
2019-11-02T05:03:38Z,42.805,6.029,13.2995,4.60020,2469.853,2019-11-02T07:04:04Z
2019-11-02T05:06:41Z,42.805,6.029,13.3026,4.60054,2469.876,2019-11-02T07:07:08Z
2019-11-02T05:09:44Z,42.805,6.029,13.3021,4.60019,2469.876,2019-11-02T07:10:11Z
2019-11-02T05:12:48Z,42.805,6.029,13.2988,4.59990,2469.853,2019-11-02T07:13:14Z
2019-11-02T05:15:51Z,42.805,6.029,13.3014,4.60016,2469.83,2019-11-02T07:16:18Z
2019-11-02T05:18:54Z,42.805,6.029,13.2988,4.60003,2469.867,2019-11-02T07:19:21Z
2019-11-02T05:21:57Z,42.805,6.029,13.2991,4.59993,2469.867,2019-11-02T07:22:24Z
2019-11-02T05:25:00Z,42.805,6.029,13.2991,4.59993,2469.83,2019-11-02T07:25:27Z
2019-11-02T05:28:04Z,42.805,6.029,13.2988,4.60020,2469.89,2019-11-02T07:28:30Z
2019-11-02T05:31:07Z,42.805,6.029,13.2985,4.60021,2469.853,2019-11-02T07:31:34Z
2019-11-02T05:34:10Z,42.805,6.029,13.2993,4.60002,2469.867,2019-11-02T07:34:37Z
2019-11-02T05:37:13Z,42.805,6.029,13.2994,4.60001,2469.853,2019-11-02T07:37:40Z
2019-11-02T05:40:16Z,42.805,6.029,13.3009,4.59983,2469.9,2019-11-02T07:40:43Z
2019-11-02T05:43:20Z,42.805,6.029,13.2990,4.60013,2469.844,2019-11-02T07:43:46Z
2019-11-02T05:46:23Z,42.805,6.029,13.3000,4.60008,2469.876,2019-11-02T07:46:50Z
2019-11-02T05:49:26Z,42.805,6.029,13.3019,4.60026,2469.853,2019-11-02T07:49:53Z
2019-11-02T05:52:29Z,42.805,6.029,13.3011,4.60011,2469.853,2019-11-02T07:52:56Z
2019-11-02T05:55:32Z,42.805,6.029,13.3019,4.59983,2469.844,2019-11-02T07:55:59Z
2019-11-02T05:58:36Z,42.805,6.029,13.2999,4.60000,2469.853,2019-11-02T07:59:02Z
2019-11-02T06:01:39Z,42.805,6.029,13.2984,4.60039,2469.89,2019-11-02T08:02:06Z
2019-11-02T06:04:42Z,42.805,6.029,13.2986,4.60026,2469.853,2019-11-02T08:05:09Z
2019-11-02T06:07:45Z,42.805,6.029,13.3010,4.59994,2469.853,2019-11-02T08:08:12Z
2019-11-02T06:10:49Z,42.805,6.029,13.2999,4.59999,2469.89,2019-11-02T08:11:15Z
2019-11-02T06:13:52Z,42.805,6.029,13.2998,4.59991,2469.867,2019-11-02T08:14:19Z
2019-11-02T06:16:55Z,42.805,6.029,13.2978,4.60011,2469.867,2019-11-02T08:17:22Z
2019-11-02T06:19:59Z,42.805,6.029,13.2979,4.59979,2469.853,2019-11-02T08:20:25Z
2019-11-02T06:23:02Z,42.805,6.029,13.2990,4.59989,2469.867,2019-11-02T08:23:29Z
2019-11-02T06:26:05Z,42.805,6.029,13.2988,4.59991,2469.876,2019-11-02T08:26:32Z
2019-11-02T06:29:09Z,42.805,6.029,13.2984,4.60006,2469.9,2019-11-02T08:29:35Z
2019-11-02T06:32:12Z,42.805,6.029,13.2992,4.59993,2469.937,2019-11-02T08:32:39Z
2019-11-02T06:35:15Z,42.805,6.029,13.2986,4.60001,2469.876,2019-11-02T08:35:42Z
2019-11-02T06:38:18Z,42.805,6.029,13.2975,4.60007,2469.89,2019-11-02T08:38:45Z
2019-11-02T06:41:22Z,42.805,6.029,13.3029,4.59981,2469.876,2019-11-02T08:41:48Z
2019-11-02T06:44:25Z,42.805,6.029,13.3031,4.59978,2469.914,2019-11-02T08:44:52Z
2019-11-02T06:47:28Z,42.805,6.029,13.3011,4.59990,2469.9,2019-11-02T08:47:55Z
2019-11-02T06:50:31Z,42.805,6.029,13.2990,4.59997,2469.89,2019-11-02T08:50:58Z
2019-11-02T06:53:35Z,42.805,6.029,13.2997,4.59996,2469.9,2019-11-02T08:54:01Z
2019-11-02T06:56:38Z,42.805,6.029,13.3031,4.59999,2469.876,2019-11-02T08:57:05Z
2019-11-02T06:59:41Z,42.805,6.029,13.2993,4.59992,2469.9,2019-11-02T09:00:08Z
2019-11-02T07:02:44Z,42.805,6.029,13.3017,4.59996,2469.9,2019-11-02T09:03:11Z
2019-11-02T07:05:47Z,42.805,6.029,13.2998,4.59979,2469.937,2019-11-02T09:06:14Z
2019-11-02T07:08:51Z,42.805,6.029,13.3031,4.59996,2469.9,2019-11-02T09:09:17Z
2019-11-02T07:11:54Z,42.805,6.029,13.3017,4.59987,2469.914,2019-11-02T09:12:21Z
2019-11-02T07:14:57Z,42.805,6.029,13.2996,4.60006,2469.923,2019-11-02T09:15:24Z
2019-11-02T07:18:00Z,42.805,6.029,13.3000,4.60012,2469.947,2019-11-02T09:18:27Z
2019-11-02T07:21:03Z,42.805,6.029,13.3008,4.60016,2469.876,2019-11-02T09:21:30Z
2019-11-02T07:24:07Z,42.805,6.029,13.3000,4.60032,2469.923,2019-11-02T09:24:33Z
2019-11-02T07:27:10Z,42.805,6.029,13.2990,4.60002,2469.923,2019-11-02T09:27:37Z
2019-11-02T07:30:13Z,42.805,6.029,13.2992,4.59982,2469.9,2019-11-02T09:30:40Z
2019-11-02T07:33:16Z,42.805,6.029,13.3001,4.59997,2469.923,2019-11-02T09:33:43Z
2019-11-02T07:36:20Z,42.805,6.029,13.3025,4.59982,2469.937,2019-11-02T09:36:46Z
2019-11-02T07:39:23Z,42.805,6.029,13.3024,4.59981,2469.923,2019-11-02T09:39:50Z
2019-11-02T07:42:26Z,42.805,6.029,13.3026,4.59982,2469.923,2019-11-02T09:42:53Z
2019-11-02T07:45:29Z,42.805,6.029,13.3004,4.59982,2469.96,2019-11-02T09:45:56Z
2019-11-02T07:48:32Z,42.805,6.029,13.3018,4.59989,2469.923,2019-11-02T09:48:59Z
2019-11-02T07:51:36Z,42.805,6.029,13.3016,4.60004,2469.984,2019-11-02T09:52:02Z
2019-11-02T07:54:39Z,42.805,6.029,13.3010,4.60004,2469.947,2019-11-02T09:55:06Z
2019-11-02T07:57:42Z,42.805,6.029,13.3008,4.59995,2469.984,2019-11-02T09:58:09Z
2019-11-02T08:00:45Z,42.805,6.029,13.3004,4.59989,2469.96,2019-11-02T10:01:12Z
2019-11-02T08:03:48Z,42.805,6.029,13.3003,4.59994,2469.97,2019-11-02T10:04:15Z
2019-11-02T08:06:52Z,42.805,6.029,13.3054,4.59998,2469.984,2019-11-02T10:07:18Z
2019-11-02T08:09:55Z,42.805,6.029,13.3034,4.60002,2469.947,2019-11-02T10:10:22Z
2019-11-02T08:12:58Z,42.805,6.029,13.3019,4.59996,2469.96,2019-11-02T10:13:25Z
2019-11-02T08:16:01Z,42.805,6.029,13.3016,4.59994,2469.984,2019-11-02T10:16:28Z
2019-11-02T08:19:04Z,42.805,6.029,13.3022,4.59990,2469.97,2019-11-02T10:19:31Z
2019-11-02T08:22:08Z,42.805,6.029,13.3058,4.59993,2469.947,2019-11-02T10:22:35Z
2019-11-02T08:25:11Z,42.805,6.029,13.2990,4.59996,2470.007,2019-11-02T10:25:38Z
2019-11-02T08:28:14Z,42.805,6.029,13.2993,4.60004,2469.984,2019-11-02T10:28:41Z
2019-11-02T08:31:18Z,42.805,6.029,13.3011,4.59997,2469.97,2019-11-02T10:31:44Z
2019-11-02T08:34:21Z,42.805,6.029,13.3010,4.60007,2469.993,2019-11-02T10:34:48Z
2019-11-02T08:37:24Z,42.805,6.029,13.3029,4.59997,2469.984,2019-11-02T10:37:51Z
2019-11-02T08:40:27Z,42.805,6.029,13.3047,4.59990,2470.017,2019-11-02T10:40:54Z
2019-11-02T08:43:30Z,42.805,6.029,13.3041,4.59996,2469.96,2019-11-02T10:43:57Z
2019-11-02T08:46:34Z,42.805,6.029,13.3054,4.59998,2470.007,2019-11-02T10:47:00Z
2019-11-02T08:49:37Z,42.805,6.029,13.3046,4.59999,2469.993,2019-11-02T10:50:04Z
2019-11-02T08:52:40Z,42.805,6.029,13.3039,4.60011,2470.007,2019-11-02T10:53:07Z
2019-11-02T08:55:43Z,42.805,6.029,13.3041,4.59992,2469.97,2019-11-02T10:56:10Z
2019-11-02T08:58:46Z,42.805,6.029,13.3020,4.60017,2469.993,2019-11-02T10:59:13Z
2019-11-02T09:01:50Z,42.805,6.029,13.3012,4.60003,2469.993,2019-11-02T11:02:16Z
2019-11-02T09:04:53Z,42.805,6.029,13.3009,4.60001,2470.03,2019-11-02T11:05:20Z
2019-11-02T09:07:56Z,42.805,6.029,13.3015,4.60003,2470.017,2019-11-02T11:08:23Z
2019-11-02T09:10:59Z,42.805,6.029,13.3027,4.60001,2470.053,2019-11-02T11:11:26Z
2019-11-02T09:14:03Z,42.805,6.029,13.3042,4.59999,2470.03,2019-11-02T11:14:30Z
2019-11-02T09:17:06Z,42.805,6.029,13.3046,4.60005,2470.03,2019-11-02T11:17:33Z
2019-11-02T09:20:09Z,42.805,6.029,13.3035,4.59994,2470.017,2019-11-02T11:20:36Z
2019-11-02T09:23:13Z,42.805,6.029,13.3041,4.60000,2470.007,2019-11-02T11:23:39Z
2019-11-02T09:26:16Z,42.805,6.029,13.3039,4.60003,2470.017,2019-11-02T11:26:43Z
2019-11-02T09:29:19Z,42.805,6.029,13.3025,4.60000,2470.03,2019-11-02T11:29:46Z
2019-11-02T09:32:22Z,42.805,6.029,13.3041,4.60000,2470.007,2019-11-02T11:32:49Z
2019-11-02T09:35:26Z,42.805,6.029,13.3024,4.59991,2470.03,2019-11-02T11:35:52Z
2019-11-02T09:38:29Z,42.805,6.029,13.3019,4.59999,2470.03,2019-11-02T11:38:56Z
2019-11-02T09:41:32Z,42.805,6.029,13.3037,4.60002,2469.993,2019-11-02T11:41:59Z
2019-11-02T09:44:35Z,42.805,6.029,13.3028,4.59988,2470.053,2019-11-02T11:45:02Z
2019-11-02T09:47:38Z,42.805,6.029,13.3042,4.59994,2469.993,2019-11-02T11:48:05Z
2019-11-02T09:50:42Z,42.805,6.029,13.3021,4.59990,2470.053,2019-11-02T11:51:08Z
2019-11-02T09:53:45Z,42.805,6.029,13.3014,4.60038,2470.007,2019-11-02T11:54:12Z
2019-11-02T09:56:48Z,42.805,6.029,13.3048,4.59998,2470.053,2019-11-02T11:57:15Z
2019-11-02T09:59:51Z,42.805,6.029,13.3035,4.59990,2470.017,2019-11-02T12:00:18Z
2019-11-02T10:02:54Z,42.805,6.029,13.3039,4.59994,2470.053,2019-11-02T12:03:21Z
2019-11-02T10:05:58Z,42.805,6.029,13.3037,4.60009,2470.017,2019-11-02T12:06:24Z
2019-11-02T10:09:01Z,42.805,6.029,13.3015,4.59998,2470.053,2019-11-02T12:09:28Z
2019-11-02T10:12:04Z,42.805,6.029,13.3019,4.59996,2470.053,2019-11-02T12:12:31Z
2019-11-02T10:15:07Z,42.805,6.029,13.3019,4.60002,2470.053,2019-11-02T12:15:34Z
2019-11-02T10:18:10Z,42.805,6.029,13.3026,4.60010,2470.04,2019-11-02T12:18:37Z
2019-11-02T10:21:14Z,42.805,6.029,13.3042,4.59991,2470.04,2019-11-02T12:21:41Z
2019-11-02T10:24:17Z,42.805,6.029,13.3031,4.60019,2470.053,2019-11-02T12:24:44Z
2019-11-02T10:27:20Z,42.805,6.029,13.3043,4.60006,2470.053,2019-11-02T12:27:47Z
2019-11-02T10:30:24Z,42.805,6.029,13.3039,4.59986,2470.053,2019-11-02T12:30:50Z
2019-11-02T10:33:27Z,42.805,6.029,13.3035,4.59985,2470.04,2019-11-02T12:33:54Z
2019-11-02T10:36:30Z,42.805,6.029,13.3026,4.59987,2470.053,2019-11-02T12:36:57Z
2019-11-02T10:39:33Z,42.805,6.029,13.3022,4.59987,2470.017,2019-11-02T12:40:00Z
2019-11-02T10:42:37Z,42.805,6.029,13.3021,4.60009,2470.053,2019-11-02T12:43:03Z
2019-11-02T10:45:40Z,42.805,6.029,13.3015,4.59996,2470.04,2019-11-02T12:46:07Z
2019-11-02T10:48:43Z,42.805,6.029,13.3004,4.59990,2470.03,2019-11-02T12:49:10Z
2019-11-02T10:51:46Z,42.805,6.029,13.2986,4.60015,2470.053,2019-11-02T12:52:13Z
2019-11-02T10:54:49Z,42.805,6.029,13.3004,4.60026,2470.053,2019-11-02T12:55:16Z
2019-11-02T10:57:53Z,42.805,6.029,13.3037,4.60016,2470.077,2019-11-02T12:58:19Z
2019-11-02T11:00:56Z,42.805,6.029,13.3038,4.59990,2470.03,2019-11-02T13:01:23Z
2019-11-02T11:03:59Z,42.805,6.029,13.3028,4.59973,2470.04,2019-11-02T13:04:26Z
2019-11-02T11:07:03Z,42.805,6.029,13.3015,4.59976,2470.063,2019-11-02T13:07:30Z
2019-11-02T11:10:06Z,42.805,6.029,13.3000,4.60003,2470.053,2019-11-02T13:10:33Z
2019-11-02T11:13:09Z,42.805,6.029,13.3002,4.59978,2470.077,2019-11-02T13:13:36Z
2019-11-02T11:16:13Z,42.805,6.029,13.3024,4.59996,2470.053,2019-11-02T13:16:39Z
2019-11-02T11:19:16Z,42.805,6.029,13.3024,4.59990,2470.03,2019-11-02T13:19:43Z
2019-11-02T11:22:19Z,42.805,6.029,13.3027,4.59982,2470.053,2019-11-02T13:22:46Z
2019-11-02T11:25:22Z,42.805,6.029,13.3019,4.59989,2470.007,2019-11-02T13:25:49Z
2019-11-02T11:28:26Z,42.805,6.029,13.3005,4.60024,2470.017,2019-11-02T13:28:52Z
2019-11-02T11:31:29Z,42.805,6.029,13.3004,4.59999,2470.04,2019-11-02T13:31:56Z
2019-11-02T11:34:32Z,42.805,6.029,13.3002,4.60036,2470.04,2019-11-02T13:34:59Z
2019-11-02T11:37:35Z,42.805,6.029,13.3006,4.60049,2470.007,2019-11-02T13:38:02Z
2019-11-02T11:40:38Z,42.805,6.029,13.3000,4.60020,2470.03,2019-11-02T13:41:05Z
2019-11-02T11:43:42Z,42.805,6.029,13.2993,4.60019,2470.017,2019-11-02T13:44:08Z
2019-11-02T11:46:45Z,42.805,6.029,13.2971,4.60016,2470.017,2019-11-02T13:47:12Z
2019-11-02T11:49:48Z,42.805,6.029,13.3009,4.60007,2470.017,2019-11-02T13:50:15Z
2019-11-02T11:52:51Z,42.805,6.029,13.2982,4.60052,2470.03,2019-11-02T13:53:18Z
2019-11-02T11:55:54Z,42.805,6.029,13.3010,4.60044,2470.04,2019-11-02T13:56:21Z
2019-11-02T11:58:58Z,42.805,6.029,13.3062,4.60008,2470.03,2019-11-02T13:59:24Z
2019-11-02T12:02:01Z,42.805,6.029,13.3056,4.60038,2470.017,2019-11-02T14:02:28Z
2019-11-02T12:05:04Z,42.805,6.029,13.2996,4.60074,2470.04,2019-11-02T14:05:31Z
2019-11-02T12:08:07Z,42.805,6.029,13.2987,4.60050,2470.053,2019-11-02T14:08:34Z
2019-11-02T12:11:11Z,42.805,6.029,13.2994,4.60046,2470.053,2019-11-02T14:11:37Z
2019-11-02T12:14:14Z,42.805,6.029,13.3014,4.60062,2470.03,2019-11-02T14:14:40Z
2019-11-02T12:17:17Z,42.805,6.029,13.3013,4.60044,2470.03,2019-11-02T14:17:44Z
2019-11-02T12:20:20Z,42.805,6.029,13.2997,4.60025,2470.017,2019-11-02T14:20:47Z
2019-11-02T12:23:23Z,42.805,6.029,13.3009,4.59992,2469.97,2019-11-02T14:23:50Z
2019-11-02T12:26:27Z,42.805,6.029,13.2996,4.60024,2470.007,2019-11-02T14:26:53Z
2019-11-02T12:29:30Z,42.805,6.029,13.2971,4.60034,2470.007,2019-11-02T14:29:57Z
2019-11-02T12:32:33Z,42.805,6.029,13.2971,4.60029,2469.993,2019-11-02T14:33:00Z
2019-11-02T12:35:36Z,42.805,6.029,13.2994,4.60003,2470.007,2019-11-02T14:36:03Z
2019-11-02T12:38:39Z,42.805,6.029,13.2988,4.60042,2470.007,2019-11-02T14:39:06Z
2019-11-02T12:41:42Z,42.805,6.029,13.2990,4.60010,2470.007,2019-11-02T14:42:09Z
2019-11-02T12:44:46Z,42.805,6.029,13.2990,4.60031,2469.993,2019-11-02T14:45:12Z
2019-11-02T12:47:49Z,42.805,6.029,13.2996,4.60038,2470.04,2019-11-02T14:48:16Z
2019-11-02T12:50:52Z,42.805,6.029,13.2981,4.60015,2469.97,2019-11-02T14:51:19Z
2019-11-02T12:53:55Z,42.805,6.029,13.2978,4.60029,2469.97,2019-11-02T14:54:22Z
2019-11-02T12:56:59Z,42.805,6.029,13.2979,4.60041,2469.984,2019-11-02T14:57:25Z
2019-11-02T13:00:02Z,42.805,6.029,13.2971,4.60024,2470.007,2019-11-02T15:00:28Z
2019-11-02T13:03:05Z,42.805,6.029,13.2985,4.60010,2470.007,2019-11-02T15:03:32Z
2019-11-02T13:06:08Z,42.805,6.029,13.2976,4.60016,2470.03,2019-11-02T15:06:35Z
2019-11-02T13:09:11Z,42.805,6.029,13.2991,4.59999,2469.993,2019-11-02T15:09:38Z
2019-11-02T13:12:15Z,42.805,6.029,13.2984,4.60021,2470.03,2019-11-02T15:12:41Z
2019-11-02T13:15:18Z,42.805,6.029,13.2974,4.60003,2469.993,2019-11-02T15:15:45Z
2019-11-02T13:18:21Z,42.805,6.029,13.2982,4.60031,2470.007,2019-11-02T15:18:48Z
2019-11-02T13:21:24Z,42.805,6.029,13.2974,4.60046,2470.007,2019-11-02T15:21:51Z
2019-11-02T13:24:27Z,42.805,6.029,13.2974,4.60027,2470.017,2019-11-02T15:24:54Z
2019-11-02T13:27:31Z,42.805,6.029,13.2978,4.60057,2470.007,2019-11-02T15:27:57Z
2019-11-02T13:30:34Z,42.805,6.029,13.2973,4.60056,2470.007,2019-11-02T15:31:01Z
2019-11-02T13:33:37Z,42.805,6.029,13.2971,4.60054,2470.007,2019-11-02T15:34:04Z
2019-11-02T13:36:40Z,42.805,6.029,13.2983,4.60040,2469.984,2019-11-02T15:37:07Z
2019-11-02T13:39:44Z,42.805,6.029,13.2975,4.60039,2469.947,2019-11-02T15:40:10Z
2019-11-02T13:42:47Z,42.805,6.029,13.2971,4.60029,2469.993,2019-11-02T15:43:14Z
2019-11-02T13:45:50Z,42.805,6.029,13.2979,4.60036,2470.007,2019-11-02T15:46:17Z
2019-11-02T13:48:53Z,42.805,6.029,13.2975,4.60033,2470.007,2019-11-02T15:49:20Z
2019-11-02T13:51:57Z,42.805,6.029,13.2974,4.60044,2469.97,2019-11-02T15:52:23Z
2019-11-02T13:55:00Z,42.805,6.029,13.2982,4.60014,2469.984,2019-11-02T15:55:27Z
2019-11-02T13:58:03Z,42.805,6.029,13.2982,4.60037,2469.97,2019-11-02T15:58:30Z
2019-11-02T14:01:06Z,42.805,6.029,13.2983,4.60038,2469.97,2019-11-02T16:01:33Z
2019-11-02T14:04:10Z,42.805,6.029,13.2982,4.60046,2470.007,2019-11-02T16:04:36Z
2019-11-02T14:07:13Z,42.805,6.029,13.2976,4.60028,2469.97,2019-11-02T16:07:40Z
2019-11-02T14:10:16Z,42.805,6.029,13.2986,4.60029,2469.97,2019-11-02T16:10:43Z
2019-11-02T14:13:19Z,42.805,6.029,13.2979,4.60058,2469.947,2019-11-02T16:13:46Z
2019-11-02T14:16:23Z,42.805,6.029,13.2988,4.60052,2469.97,2019-11-02T16:16:49Z
2019-11-02T14:19:26Z,42.805,6.029,13.2977,4.60028,2469.984,2019-11-02T16:19:53Z
2019-11-02T14:22:29Z,42.805,6.029,13.2970,4.60014,2469.96,2019-11-02T16:22:56Z
2019-11-02T14:25:32Z,42.805,6.029,13.2976,4.60021,2469.947,2019-11-02T16:25:59Z
2019-11-02T14:28:36Z,42.805,6.029,13.2978,4.60008,2469.947,2019-11-02T16:29:02Z
2019-11-02T14:31:39Z,42.805,6.029,13.2974,4.60025,2469.947,2019-11-02T16:32:06Z
2019-11-02T14:34:42Z,42.805,6.029,13.2971,4.60005,2469.96,2019-11-02T16:35:09Z
2019-11-02T14:37:45Z,42.805,6.029,13.2972,4.60027,2469.947,2019-11-02T16:38:12Z
2019-11-02T14:40:48Z,42.805,6.029,13.2976,4.60030,2469.937,2019-11-02T16:41:15Z
2019-11-02T14:43:52Z,42.805,6.029,13.2990,4.60015,2469.947,2019-11-02T16:44:18Z
2019-11-02T14:46:55Z,42.805,6.029,13.2971,4.60046,2469.984,2019-11-02T16:47:22Z
2019-11-02T14:49:58Z,42.805,6.029,13.2974,4.60049,2469.96,2019-11-02T16:50:25Z
2019-11-02T14:53:01Z,42.805,6.029,13.2974,4.60021,2469.96,2019-11-02T16:53:28Z
2019-11-02T14:56:05Z,42.805,6.029,13.2977,4.60051,2469.947,2019-11-02T16:56:31Z
2019-11-02T14:59:08Z,42.805,6.029,13.2976,4.60051,2469.984,2019-11-02T16:59:35Z
2019-11-02T15:02:11Z,42.805,6.029,13.2982,4.60031,2469.937,2019-11-02T17:02:38Z